| time (UTC) | temp F | wind direction | speed MPH | gust MPH | rain 1hr in | rain 24hr in | rain mn in | humidity % | barometer mb |
| 20260504140510 | 66 | 273 | 11.0 | 2.0 | 0.00 | 0.00 | 0.00 | 41 | 1001.2 |
| 20260504130510 | 59 | 256 | 7.0 | 1.0 | 0.00 | 0.00 | 0.00 | 51 | 1001.5 |
| 20260504110510 | 48 | 217 | 2.0 | 0.0 | 0.00 | 0.00 | 0.00 | 64 | 1001.9 |
| 20260504100510 | 46 | 224 | 1.0 | 0.0 | 0.00 | 0.00 | 0.00 | 64 | 1002.6 |
| 20260504081511 | 46 | 270 | 2.0 | 0.0 | 0.00 | 0.00 | 0.00 | 61 | 1003.6 |
| 20260504081011 | 46 | 249 | 0.0 | 0.0 | 0.00 | 0.00 | 0.00 | 60 | 1003.6 |
| 20260504080510 | 46 | 229 | 0.0 | 0.0 | 0.00 | 0.00 | 0.00 | 60 | 1003.6 |
| 20260504050511 | 52 | 224 | 1.0 | 0.0 | 0.00 | 0.00 | 0.00 | 51 | 1005.9 |
| 20260504050011 | 52 | 214 | 1.0 | 0.0 | 0.00 | 0.00 | 0.00 | 51 | 1006.0 |
| 20260504045511 | 52 | 181 | 1.0 | 0.0 | 0.00 | 0.00 | 0.00 | 51 | 1006.0 |
| 20260504045012 | 51 | 198 | 1.0 | 0.0 | 0.00 | 0.00 | 0.00 | 51 | 1006.1 |
| 20260504044511 | 51 | 151 | 0.0 | 0.0 | 0.00 | 0.00 | 0.00 | 50 | 1006.1 |
| 20260504044011 | 51 | 211 | 1.0 | 0.0 | 0.00 | 0.00 | 0.00 | 49 | 1006.2 |
| 20260504043511 | 52 | 204 | 1.0 | 0.0 | 0.00 | 0.00 | 0.00 | 50 | 1006.2 |
| 20260504043010 | 53 | 302 | 0.0 | 0.0 | 0.00 | 0.00 | 0.00 | 51 | 1006.3 |
| 20260504042510 | 53 | 298 | 0.0 | 0.0 | 0.00 | 0.00 | 0.00 | 50 | 1006.3 |
| 20260504042010 | 53 | 304 | 0.0 | 0.0 | 0.00 | 0.00 | 0.00 | 48 | 1006.4 |
| 20260504041510 | 54 | 301 | 0.0 | 0.0 | 0.00 | 0.00 | 0.00 | 47 | 1006.6 |
| 20260504041010 | 54 | 285 | 0.0 | 0.0 | 0.00 | 0.00 | 0.00 | 47 | 1006.7 |
| 20260504040510 | 54 | 279 | 1.0 | 0.0 | 0.00 | 0.00 | 0.00 | 46 | 1006.8 |
| 20260504035510 | 56 | 250 | 2.0 | 0.0 | 0.00 | 0.00 | 0.00 | 45 | 1006.9 |
| 20260504035010 | 56 | 271 | 2.0 | 0.0 | 0.00 | 0.00 | 0.00 | 44 | 1007.0 |
| 20260504034510 | 56 | 293 | 2.0 | 0.0 | 0.00 | 0.00 | 0.00 | 43 | 1007.0 |
| 20260504034010 | 58 | 281 | 2.0 | 0.0 | 0.00 | 0.00 | 0.00 | 42 | 1007.1 |
| 20260504033510 | 58 | 266 | 3.0 | 0.0 | 0.00 | 0.00 | 0.00 | 43 | 1007.2 |
| 20260504033010 | 58 | 276 | 4.0 | 0.0 | 0.00 | 0.00 | 0.00 | 42 | 1007.2 |
| 20260504032510 | 58 | 287 | 2.0 | 0.0 | 0.00 | 0.00 | 0.00 | 42 | 1007.3 |
| 20260504031510 | 58 | 224 | 2.0 | 0.0 | 0.00 | 0.00 | 0.00 | 40 | 1007.4 |
| 20260504031010 | 59 | 278 | 2.0 | 0.0 | 0.00 | 0.00 | 0.00 | 41 | 1007.4 |
| 20260504030510 | 59 | 260 | 1.0 | 0.0 | 0.00 | 0.00 | 0.00 | 40 | 1007.5 |
| 20260504030010 | 59 | 283 | 3.0 | 0.0 | 0.00 | 0.00 | 0.00 | 40 | 1007.5 |
| 20260504025510 | 59 | 298 | 1.0 | 0.0 | 0.00 | 0.00 | 0.00 | 40 | 1007.5 |
| 20260504025010 | 60 | 286 | 1.0 | 0.0 | 0.00 | 0.00 | 0.00 | 39 | 1007.5 |
| 20260504024510 | 60 | 274 | 4.0 | 0.0 | 0.00 | 0.00 | 0.00 | 38 | 1007.5 |
| 20260504024010 | 60 | 282 | 2.0 | 0.0 | 0.00 | 0.00 | 0.00 | 37 | 1007.5 |
| 20260504023510 | 60 | 294 | 3.0 | 0.0 | 0.00 | 0.00 | 0.00 | 37 | 1007.5 |
| 20260504023010 | 60 | 276 | 3.0 | 0.0 | 0.00 | 0.00 | 0.00 | 38 | 1007.6 |
| 20260504022510 | 60 | 288 | 2.0 | 0.0 | 0.00 | 0.00 | 0.00 | 37 | 1007.6 |
| 20260504022010 | 60 | 286 | 2.0 | 0.0 | 0.00 | 0.00 | 0.00 | 36 | 1007.5 |
| 20260504021510 | 61 | 285 | 1.0 | 0.0 | 0.00 | 0.00 | 0.00 | 35 | 1007.5 |
| 20260504020511 | 62 | 281 | 1.0 | 0.0 | 0.00 | 0.00 | 0.00 | 35 | 1007.5 |
| 20260504020010 | 62 | 278 | 1.0 | 0.0 | 0.00 | 0.00 | 0.00 | 35 | 1007.5 |
| 20260504015010 | 63 | 284 | 0.0 | 0.0 | 0.00 | 0.00 | 0.00 | 34 | 1007.4 |
| 20260504014512 | 63 | 288 | 0.0 | 0.0 | 0.00 | 0.00 | 0.00 | 34 | 1007.3 |
| 20260504014010 | 63 | 270 | 1.0 | 0.0 | 0.00 | 0.00 | 0.00 | 34 | 1007.3 |
| 20260504013510 | 63 | 238 | 1.0 | 0.0 | 0.00 | 0.00 | 0.00 | 34 | 1007.3 |
| 20260504013010 | 64 | 284 | 0.0 | 0.0 | 0.00 | 0.00 | 0.00 | 33 | 1007.3 |
| 20260504012510 | 64 | 283 | 2.0 | 0.0 | 0.00 | 0.00 | 0.00 | 32 | 1007.3 |
| 20260504011510 | 66 | 277 | 0.0 | 0.0 | 0.00 | 0.00 | 0.00 | 31 | 1007.3 |
| 20260504010510 | 68 | 281 | 1.0 | 0.0 | 0.00 | 0.00 | 0.00 | 30 | 1007.3 |
| 20260504010011 | 69 | 274 | 3.0 | 0.0 | 0.00 | 0.00 | 0.00 | 29 | 1007.3 |
| 20260504005510 | 70 | 287 | 1.0 | 0.0 | 0.00 | 0.00 | 0.00 | 28 | 1007.3 |
| 20260504005010 | 70 | 277 | 3.0 | 0.0 | 0.00 | 0.00 | 0.00 | 27 | 1007.3 |
| 20260504004010 | 71 | 291 | 2.0 | 1.0 | 0.00 | 0.00 | 0.00 | 26 | 1007.4 |
| 20260504003512 | 71 | 287 | 6.0 | 1.0 | 0.00 | 0.00 | 0.00 | 25 | 1007.4 |
| 20260504003011 | 72 | 294 | 4.0 | 1.0 | 0.00 | 0.00 | 0.00 | 25 | 1007.4 |
| 20260504002010 | 72 | 275 | 9.0 | 1.0 | 0.00 | 0.00 | 0.00 | 25 | 1007.4 |
| 20260504001510 | 72 | 288 | 4.0 | 1.0 | 0.00 | 0.00 | 0.00 | 24 | 1007.5 |
| 20260504001010 | 73 | 273 | 5.0 | 1.0 | 0.00 | 0.00 | 0.00 | 24 | 1007.5 |
| 20260504000511 | 73 | 304 | 0.0 | 1.0 | 0.00 | 0.00 | 0.00 | 25 | 1007.5 |
| 20260504000010 | 73 | 287 | 8.0 | 1.0 | 0.00 | 0.00 | 0.00 | 24 | 1007.5 |
| 20260503235510 | 73 | 253 | 1.0 | 1.0 | 0.00 | 0.00 | 0.00 | 24 | 1007.5 |
| 20260503235011 | 74 | 287 | 7.0 | 1.0 | 0.00 | 0.00 | 0.00 | 25 | 1007.5 |
| 20260503234510 | 73 | 307 | 6.0 | 2.0 | 0.00 | 0.00 | 0.00 | 25 | 1007.5 |
| 20260503234010 | 73 | 323 | 0.0 | 2.0 | 0.00 | 0.00 | 0.00 | 24 | 1007.5 |
| 20260503233510 | 73 | 62 | 1.0 | 1.0 | 0.00 | 0.00 | 0.00 | 23 | 1007.6 |
| 20260503232512 | 74 | 284 | 8.0 | 1.0 | 0.00 | 0.00 | 0.00 | 24 | 1007.7 |
| 20260503232011 | 74 | 292 | 5.0 | 2.0 | 0.00 | 0.00 | 0.00 | 26 | 1007.7 |
| 20260503231510 | 74 | 294 | 0.0 | 2.0 | 0.00 | 0.00 | 0.00 | 25 | 1007.7 |
| 20260503231011 | 74 | 34 | 2.0 | 1.0 | 0.00 | 0.00 | 0.00 | 25 | 1007.6 |
| 20260503230511 | 74 | 284 | 8.0 | 1.0 | 0.00 | 0.00 | 0.00 | 24 | 1007.7 |
| 20260503225511 | 75 | 353 | 0.0 | 1.0 | 0.00 | 0.00 | 0.00 | 24 | 1007.8 |
| 20260503223511 | 75 | 53 | 0.0 | 1.0 | 0.00 | 0.00 | 0.00 | 25 | 1008.0 |
| 20260503223011 | 75 | 253 | 0.0 | 1.0 | 0.00 | 0.00 | 0.00 | 25 | 1008.0 |
| 20260503222510 | 75 | 321 | 0.0 | 1.0 | 0.00 | 0.00 | 0.00 | 24 | 1008.0 |
| 20260503222011 | 74 | 176 | 0.0 | 1.0 | 0.00 | 0.00 | 0.00 | 23 | 1008.1 |
| 20260503221011 | 75 | 259 | 6.0 | 1.0 | 0.00 | 0.00 | 0.00 | 24 | 1008.1 |
| 20260503220511 | 75 | 305 | 3.0 | 1.0 | 0.00 | 0.00 | 0.00 | 24 | 1008.1 |
| 20260503220011 | 74 | 315 | 2.0 | 1.0 | 0.00 | 0.00 | 0.00 | 24 | 1008.1 |
| 20260503215011 | 74 | 12 | 1.0 | 1.0 | 0.00 | 0.00 | 0.00 | 24 | 1008.3 |
| 20260503214510 | 74 | 232 | 7.0 | 1.0 | 0.00 | 0.00 | 0.00 | 24 | 1008.4 |
| 20260503214011 | 74 | 309 | 0.0 | 1.0 | 0.00 | 0.00 | 0.00 | 24 | 1008.3 |
| 20260503213511 | 74 | 269 | 0.0 | 1.0 | 0.00 | 0.00 | 0.00 | 24 | 1008.5 |
| 20260503213011 | 74 | 33 | 3.0 | 1.0 | 0.00 | 0.00 | 0.00 | 25 | 1008.5 |
| 20260503212511 | 74 | 200 | 3.0 | 1.0 | 0.00 | 0.00 | 0.00 | 25 | 1008.5 |
| 20260503212011 | 74 | 239 | 6.0 | 1.0 | 0.00 | 0.00 | 0.00 | 24 | 1008.7 |
| 20260503211511 | 75 | 307 | 3.0 | 1.0 | 0.00 | 0.00 | 0.00 | 22 | 1008.7 |
| 20260503211011 | 75 | 325 | 2.0 | 0.0 | 0.00 | 0.00 | 0.00 | 24 | 1008.7 |
| 20260503210511 | 74 | 359 | 2.0 | 1.0 | 0.00 | 0.00 | 0.00 | 26 | 1008.7 |
| 20260503210011 | 74 | 328 | 5.0 | 1.0 | 0.00 | 0.00 | 0.00 | 25 | 1008.8 |
| 20260503205511 | 74 | 276 | 0.0 | 1.0 | 0.00 | 0.00 | 0.00 | 25 | 1008.9 |
| 20260503205011 | 74 | 43 | 7.0 | 1.0 | 0.00 | 0.00 | 0.00 | 26 | 1008.8 |
| 20260503204012 | 74 | 269 | 4.0 | 1.0 | 0.00 | 0.00 | 0.00 | 26 | 1009.0 |
| 20260503203511 | 74 | 305 | 4.0 | 1.0 | 0.00 | 0.00 | 0.00 | 25 | 1009.1 |
| 20260503203011 | 74 | 18 | 3.0 | 1.0 | 0.00 | 0.00 | 0.00 | 25 | 1009.0 |
| 20260503202511 | 74 | 307 | 3.0 | 1.0 | 0.00 | 0.00 | 0.00 | 26 | 1009.1 |
| 20260503200011 | 73 | 289 | 2.0 | 1.0 | 0.00 | 0.00 | 0.00 | 24 | 1009.4 |
| 20260503195511 | 73 | 37 | 2.0 | 1.0 | 0.00 | 0.00 | 0.00 | 26 | 1009.3 |
| 20260503194511 | 74 | 67 | 0.0 | 1.0 | 0.00 | 0.00 | 0.00 | 24 | 1009.6 |
| 20260503194011 | 74 | 267 | 6.0 | 1.0 | 0.00 | 0.00 | 0.00 | 25 | 1009.4 |
| 20260503193511 | 74 | 308 | 0.0 | 1.0 | 0.00 | 0.00 | 0.00 | 25 | 1009.6 |
| 20260503192511 | 74 | 60 | 0.0 | 1.0 | 0.00 | 0.00 | 0.00 | 26 | 1009.4 |
| 20260503192011 | 73 | 266 | 4.0 | 1.0 | 0.00 | 0.00 | 0.00 | 28 | 1009.5 |
| 20260503191511 | 74 | 294 | 4.0 | 1.0 | 0.00 | 0.00 | 0.00 | 27 | 1009.5 |
| 20260503191012 | 74 | 301 | 2.0 | 1.0 | 0.00 | 0.00 | 0.00 | 27 | 1009.5 |
| 20260503190511 | 73 | 311 | 2.0 | 1.0 | 0.00 | 0.00 | 0.00 | 29 | 1009.6 |
| 20260503190011 | 73 | 298 | 6.0 | 1.0 | 0.00 | 0.00 | 0.00 | 28 | 1009.7 |
| 20260503185511 | 72 | 67 | 4.0 | 1.0 | 0.00 | 0.00 | 0.00 | 29 | 1009.7 |
| 20260503185011 | 72 | 328 | 2.0 | 1.0 | 0.00 | 0.00 | 0.00 | 29 | 1009.7 |
| 20260503184511 | 71 | 273 | 2.0 | 1.0 | 0.00 | 0.00 | 0.00 | 29 | 1009.8 |
| 20260503184010 | 71 | 315 | 3.0 | 1.0 | 0.00 | 0.00 | 0.00 | 29 | 1009.7 |
| 20260503183510 | 72 | 308 | 6.0 | 1.0 | 0.00 | 0.00 | 0.00 | 27 | 1009.7 |
| 20260503183010 | 71 | 301 | 2.0 | 2.0 | 0.00 | 0.00 | 0.00 | 29 | 1009.6 |
| 20260503182010 | 71 | 318 | 5.0 | 1.0 | 0.00 | 0.00 | 0.00 | 27 | 1009.7 |
| 20260503181511 | 71 | 311 | 4.0 | 1.0 | 0.00 | 0.00 | 0.00 | 29 | 1009.8 |
| 20260503181010 | 71 | 89 | 4.0 | 1.0 | 0.00 | 0.00 | 0.00 | 28 | 1009.7 |
| 20260503180510 | 71 | 321 | 2.0 | 2.0 | 0.00 | 0.00 | 0.00 | 29 | 1009.8 |
| 20260503180010 | 71 | 297 | 3.0 | 2.0 | 0.00 | 0.00 | 0.00 | 29 | 1009.7 |
| 20260503175010 | 70 | 313 | 2.0 | 2.0 | 0.00 | 0.00 | 0.00 | 29 | 1009.9 |
| 20260503174510 | 70 | 311 | 4.0 | 1.0 | 0.00 | 0.00 | 0.00 | 32 | 1009.8 |
| 20260503173510 | 70 | 335 | 3.0 | 1.0 | 0.00 | 0.00 | 0.00 | 31 | 1010.0 |
| 20260503173010 | 70 | 98 | 2.0 | 2.0 | 0.00 | 0.00 | 0.00 | 32 | 1010.0 |
| 20260503171510 | 70 | 288 | 1.0 | 1.0 | 0.00 | 0.00 | 0.00 | 30 | 1010.1 |
| 20260503171010 | 71 | 96 | 5.0 | 1.0 | 0.00 | 0.00 | 0.00 | 29 | 1010.2 |
| 20260503170510 | 70 | 305 | 2.0 | 1.0 | 0.00 | 0.00 | 0.00 | 30 | 1010.1 |
| 20260503151010 | 65 | 304 | 2.0 | 1.0 | 0.00 | 0.00 | 0.00 | 39 | 1010.2 |